KSPAKCHA

Guest
Details From KSPA - SPARTANBURG DOWNTOWN MEM
To KCHA - Lovell Field
Flight Number -
Tags generated
Created
Modified
Stats Distance 160 nm / 296 km
Max Altitude 20,400 ft / 6,218 m
Waypoints 3
Social Downloads 1
Likes 0
Share VATSIM

Download

Looking for another format? Having issues loading an existing format? Contact us
Advertisement - Login to hide

Notes

Basic altitude profile: - Ascent Rate: 1000ft/min - Ascent Speed: 100kts - Cruise Altitude: 12000ft - Cruise Speed: 120kts - Descent Rate: 500ft/min - Descent Speed: 100kts Options: - Use NATs: yes - Use PACOTS: no - Use low airways: yes - Use high airways: no

Route

KSPA DILLA KCHA

ID Type Via Altitude Latitude Longitude Leg Dist Tot Dist Heading (true) Name
O KSPA APT - 0 ft / 0 m 34.91573˚ -81.95649˚ - 0 nm - SPARTANBURG DOWNTOWN MEM
DILLA FIX - 20,400 ft / 6,218 m 34.98076˚ -83.17165˚ 59 nm 59 nm 274° / 273° -
O KCHA APT - 0 ft / 0 m 35.03565˚ -85.20349˚ 100 nm 159 nm 272° / 271° Lovell Field

Altitude Profile

Advertisement - Login to hide

KSPA

Details ICAO KSPA
Name SPARTANBURG DOWNTOWN MEM
Region United States
Timezone America/New_York (UTC-5.0)
Stats Elevation 800 ft / 244 m (AMSL)
Location 34.915732° -81.956493°
Runways 1
Magnetic Variation 6.968° W

METAR

KSPA 162235Z AUTO 00000KT 10SM CLR 06/M06 A3023 RMK AO2

Decode

TAF

Not found

Departure Runways

ID Width Length Bearing (true) Bearing (mag) Surface Threshold Offset Overrun Length
05 100 ft / 30 m 5,205 ft / 1,587 m 41.44° 48.41° Asphalt 0 ft / 0 m 0 ft / 0 m
23 100 ft / 30 m 5,205 ft / 1,587 m 221.45° 228.42° Asphalt 0 ft / 0 m 0 ft / 0 m

KCHA

Details ICAO KCHA (CHA)
Name Lovell Field
Region United States
Timezone America/New_York (UTC-5.0)
Stats Elevation 683 ft / 208 m (AMSL)
Location 35.035654° -85.203491°
Runways 2
Magnetic Variation 4.748° W

METAR

KCHA 162153Z 18006KT 10SM SCT200 BKN250 09/M02 A3023 RMK AO2 SLP240 T00941022

Decode

TAF

KCHA 161721Z 1618/1718 VRB03KT P6SM BKN200 FM171500 16004KT 6SM -SHRA BR OVC030

Decode

Destination Runways

ID Width Length Bearing (true) Bearing (mag) Surface Threshold Offset Overrun Length
02 151 ft / 46 m 7,416 ft / 2,260 m 16.63° 21.38° Asphalt 0 ft / 0 m 49 ft / 15 m
15 151 ft / 46 m 5,580 ft / 1,701 m 145.60° 150.35° Asphalt 105 ft / 32 m 0 ft / 0 m
20 151 ft / 46 m 7,416 ft / 2,260 m 196.63° 201.38° Asphalt 0 ft / 0 m 0 ft / 0 m
33 151 ft / 46 m 5,580 ft / 1,701 m 325.61° 330.36° Asphalt 574 ft / 175 m 0 ft / 0 m

Approach Navaids

Runway Type Ident Frequency Range Bearing (true) Bearing (mag) Slope Elevation
02 Localiser ICGW 108.30 MHz 18 nm / 33 km 16.63° 21.38° - 667 ft / 203 m (AMSL)
02 Glidescope ICGW 108.30 MHz 10 nm / 19 km 16.63° 21.38° 3.00° 675 ft / 206 m (AMSL)
20 Localiser ICHA 109.50 MHz 18 nm / 33 km 196.63° 201.38° - 674 ft / 205 m (AMSL)
20 Glidescope ICHA 109.50 MHz 10 nm / 19 km 196.63° 201.38° 3.00° 663 ft / 202 m (AMSL)

Popular Alternatives